User: anonymous   Login
Location: Diebersbach
(48.5163°N, 8.0558°E)
Time: 15:19:36
(UTC+00:00)
Language:

Meteor 2-19 Rocket - Orbit

View from above orbital plane
View from above orbital plane
View from above satellite
View from above satellite

Ground track
Ground track

The orbit data is extracted from the following two-line orbital elements,

1 20671U 90057B   21263.32522508  .00000007  00000-0 -67805-5 0  9997
2 20671  82.5482 215.1354 0013865 265.7840  94.1736 13.84631636578408
Epoch (UTC): 20 September 2021 07:48:19
Eccentricity: 0.0013865
inclination: 82.5482°
perigee height: 937 km
apogee height: 957 km
right ascension of ascending node: 215.1354°
argument of perigee: 265.7840°
revolutions per day: 13.84631636
mean anomaly at epoch: 94.1736°
orbit number at epoch: 57840

The dashed part of the orbit path shows where the satellite is in the earth's shadow,  

DLR